CST,Max TemperatureF,Mean TemperatureF,Min TemperatureF,Max Dew PointF,MeanDew PointF,Min DewpointF,Max Humidity, Mean Humidity, Min Humidity, Max Sea Level PressureIn, Mean Sea Level PressureIn, Min Sea Level PressureIn, Max VisibilityMiles, Mean VisibilityMiles, Min VisibilityMiles, Max Wind SpeedMPH, Mean Wind SpeedMPH, Max Gust SpeedMPH,PrecipitationIn, CloudCover, Events, WindDirDegrees
2012-12-1,72,61,50,67,55,50,100,98,68,30.28,30.23,30.21,10,3,0,9,1,,0.01,2,Fog,59
2012-12-2,75,65,55,62,58,55,100,94,61,30.30,30.24,30.22,10,4,0,9,3,,0.01,0,Fog,67
2012-12-3,75,65,55,67,58,55,100,97,73,30.26,30.22,30.17,10,3,0,13,3,,0.00,0,Fog,64
2012-12-4,73,70,66,67,66,65,96,87,78,30.26,30.19,30.15,10,10,10,10,7,,0.00,4,,147
2012-12-5,71,67,63,65,63,60,94,89,74,30.17,30.11,30.04,10,8,3,13,6,,0.21,6,Rain,117
2012-12-6,74,66,59,63,61,58,100,90,60,30.04,30.01,29.97,10,7,2,15,7,20,0.04,3,Rain,86
2012-12-7,75,67,59,66,63,59,100,92,73,30.00,29.96,29.91,10,8,2,12,5,,0.00,4,,81
2012-12-8,71,67,63,68,65,63,100,96,76,30.01,29.98,29.92,10,4,0,9,3,,0.00,7,Fog,174
2012-12-9,73,66,60,68,65,60,100,93,73,30.05,29.99,29.93,10,7,0,13,5,18,0.01,4,Fog,145
2012-12-10,74,62,48,70,62,43,100,92,82,29.97,29.85,29.79,10,9,2,20,10,24,0.12,6,Rain,249
2012-12-11,47,44,40,41,38,35,87,80,70,30.18,30.06,29.97,10,10,10,17,14,22,0.00,4,,13
2012-12-12,58,48,39,36,31,23,83,58,26,30.30,30.22,30.16,10,10,10,13,8,18,0.00,0,,5
2012-12-13,63,49,35,47,37,29,95,71,38,30.36,30.30,30.26,10,10,10,9,6,,0.00,0,,31
2012-12-14,60,50,40,50,45,38,94,84,60,30.32,30.23,30.13,10,10,10,12,7,,0.00,3,,82
2012-12-15,70,61,52,64,58,50,95,87,73,30.12,30.06,30.00,10,10,10,9,7,,0.00,6,,130
2012-12-16,72,66,61,67,64,59,100,92,80,29.99,29.94,29.86,10,10,4,10,6,16,0.05,7,Rain,180
2012-12-17,67,62,56,65,62,54,100,94,78,29.90,29.82,29.78,10,7,1,14,6,21,0.54,6,Rain-Thunderstorm,186
2012-12-18,63,54,45,53,49,42,100,83,55,30.06,30.01,29.92,10,8,2,8,3,,0.00,0,,174
2012-12-19,72,59,46,66,53,46,100,96,60,30.07,30.01,29.90,10,4,0,14,2,18,0.01,1,Fog-Rain,121
2012-12-20,68,57,44,68,63,28,100,91,30,30.27,29.89,29.85,10,4,0,21,15,30,0.06,7,Fog-Rain,215
2012-12-21,56,46,37,29,24,18,62,44,23,30.40,30.33,30.26,10,10,10,16,10,23,0.00,0,,324
2012-12-22,58,46,35,43,32,25,91,62,32,30.44,30.35,30.25,10,10,10,9,3,,0.00,0,,310
2012-12-23,65,54,44,58,50,41,95,81,62,30.24,30.14,30.01,10,10,10,14,4,,0.00,5,,142
2012-12-24,71,66,60,63,61,58,100,94,72,29.99,29.92,29.87,10,7,0,18,11,21,0.05,6,Fog-Rain,218
2012-12-25,69,61,53,66,60,48,100,95,77,29.89,29.74,29.56,10,5,0,29,7,36,0.73,7,Fog-Rain-Thunderstorm,186
2012-12-26,53,45,37,45,35,32,81,70,54,30.17,30.01,29.73,10,10,10,18,10,25,0.00,3,,338
2012-12-27,48,41,34,41,34,30,87,77,58,30.22,30.14,30.06,10,10,10,12,6,,0.00,4,,68
2012-12-28,64,54,45,63,58,41,100,90,77,30.06,29.84,29.72,10,8,1,20,9,26,0.62,8,Rain,212
2012-12-29,55,46,36,52,37,28,88,72,50,30.41,30.16,29.91,10,10,10,21,16,29,0.00,5,,333
2012-12-30,52,40,29,33,28,24,85,64,34,30.52,30.44,30.37,10,10,10,13,7,,0.00,0,,31
2012-12-31,61,49,37,56,43,30,91,74,62,30.35,30.24,30.10,10,10,10,14,7,,0.00,5,,79